Jupiter, Florida Weather Center

Moon Phase Calendar



Online Cameras

 


      

Current Conditions in Jupiter
9/30/2022 4:27:12 PM

81°F
Feels Like 85
Clouds
Humidity
71%
Pressure
29.74"
Wind
3 mph (ENE)
Dew Point
71°F
UV Index
5/10 (Moderate)
Visibility
6 mi

Hourly Forecast

Date & Time Fri, Sep 30
4:00 PM
Fri, Sep 30
5:00 PM
Fri, Sep 30
6:00 PM
Fri, Sep 30
7:00 PM
Fri, Sep 30
8:00 PM
Fri, Sep 30
9:00 PM
Fri, Sep 30
10:00 PM
Fri, Sep 30
11:00 PM
Sat, Oct 1
12:00 AM
Sat, Oct 1
1:00 AM
Sat, Oct 1
2:00 AM
Sat, Oct 1
3:00 AM
Sat, Oct 1
4:00 AM
Sat, Oct 1
5:00 AM
Sat, Oct 1
6:00 AM
Sat, Oct 1
7:00 AM
Sat, Oct 1
8:00 AM
Sat, Oct 1
9:00 AM
Sat, Oct 1
10:00 AM
Sat, Oct 1
11:00 AM
Sat, Oct 1
12:00 PM
Sat, Oct 1
1:00 PM
Sat, Oct 1
2:00 PM
Sat, Oct 1
3:00 PM
Sat, Oct 1
4:00 PM
Sat, Oct 1
5:00 PM
Sat, Oct 1
6:00 PM
Sat, Oct 1
7:00 PM
Sat, Oct 1
8:00 PM
Sat, Oct 1
9:00 PM
Sat, Oct 1
10:00 PM
Sat, Oct 1
11:00 PM
Sun, Oct 2
12:00 AM
Sun, Oct 2
1:00 AM
Sun, Oct 2
2:00 AM
Sun, Oct 2
3:00 AM
Sun, Oct 2
4:00 AM
Sun, Oct 2
5:00 AM
Sun, Oct 2
6:00 AM
Sun, Oct 2
7:00 AM
Sun, Oct 2
8:00 AM
Sun, Oct 2
9:00 AM
Sun, Oct 2
10:00 AM
Sun, Oct 2
11:00 AM
Sun, Oct 2
12:00 PM
Sun, Oct 2
1:00 PM
Sun, Oct 2
2:00 PM
Sun, Oct 2
3:00 PM
Condition
Clear

Clouds

Clouds

Clouds

Clouds

Clouds

Clouds

Clouds

Clouds

Clouds

Clouds

Clouds

Clouds

Clouds

Clouds

Clouds

Clouds

Clouds

Clouds

Clouds

Clouds

Clouds

Clouds

Clouds

Rain

Clouds

Rain

Rain

Rain

Rain

Rain

Rain

Rain

Rain

Clouds

Clouds

Clouds

Clouds

Rain

Clouds

Clouds

Clear

Clear

Clear

Clear

Clear

Clouds

Clouds
Temperature 81°F81°F80°F78°F77°F77°F76°F76°F77°F76°F76°F76°F76°F76°F76°F77°F77°F78°F79°F80°F81°F81°F81°F80°F80°F80°F80°F79°F78°F78°F78°F78°F78°F77°F77°F77°F76°F76°F75°F74°F74°F76°F78°F80°F81°F82°F82°F82°F
Feels Like 85°F84°F80°F79°F78°F77°F77°F77°F77°F77°F77°F77°F77°F77°F77°F77°F78°F79°F79°F83°F83°F84°F84°F83°F80°F80°F80°F79°F79°F79°F79°F79°F78°F78°F78°F78°F77°F76°F75°F75°F75°F77°F79°F80°F83°F84°F84°F84°F
Cloudiness 9%11%17%26%37%94%94%93%92%90%81%38%32%34%33%41%47%91%88%89%85%84%77%46%48%64%72%71%69%58%59%56%52%47%42%56%53%45%33%27%22%5%6%7%6%6%14%72%
Visibility 6 mi6 mi6 mi6 mi6 mi6 mi6 mi6 mi6 mi6 mi6 mi6 mi6 mi6 mi6 mi6 mi6 mi6 mi6 mi6 mi6 mi6 mi6 mi6 mi6 mi6 mi6 mi6 mi6 mi6 mi6 mi6 mi6 mi6 mi6 mi6 mi6 mi6 mi6 mi6 mi6 mi6 mi6 mi6 mi6 mi6 mi6 mi6 mi
Precipitation 0%0%0%0%0%0%0%0%0%0%0%0%0%0%0%0%0%7%7%7%3%0%0%20%31%35%35%36%36%38%38%26%27%27%26%13%10%8%31%8%0%1%1%1%0%0%0%0%
Humidity 71%69%69%72%73%73%74%75%75%75%76%76%75%75%74%74%73%70%68%66%64%63%64%66%68%68%69%70%71%73%73%74%74%74%73%73%74%77%80%82%82%78%73%66%60%59%57%56%
Dew Point 71°F70°F69°F69°F68°F67°F68°F68°F68°F68°F68°F68°F68°F68°F68°F68°F68°F68°F68°F67°F67°F67°F68°F68°F68°F68°F68°F68°F68°F68°F69°F68°F68°F68°F68°F67°F67°F68°F68°F68°F68°F69°F68°F67°F66°F66°F65°F65°F
Pressure 29.74"29.74"29.74"29.77"29.8"29.8"29.83"29.83"29.8"29.8"29.8"29.8"29.8"29.8"29.83"29.83"29.85"29.85"29.88"29.88"29.88"29.85"29.85"29.83"29.83"29.83"29.83"29.85"29.85"29.88"29.88"29.88"29.88"29.88"29.88"29.88"29.88"29.88"29.88"29.91"29.91"29.94"29.94"29.94"29.94"29.94"29.91"29.91"
Wind Speed 5.7 mph6.6 mph7.6 mph8.1 mph7.4 mph6.8 mph6.7 mph6.6 mph7 mph7 mph6.9 mph6.5 mph6.3 mph6.1 mph6.1 mph6.4 mph6.4 mph7.1 mph7.5 mph7.5 mph7 mph6.9 mph7 mph6.6 mph5.9 mph5.7 mph5.9 mph6.3 mph6.2 mph6.3 mph6.3 mph5.8 mph4.9 mph3.6 mph2 mph1.2 mph2.5 mph4.1 mph5.4 mph6.6 mph7.1 mph6.6 mph6.3 mph6 mph4.9 mph4.9 mph4.6 mph3 mph
Wind
Direction

N
23°
NNE
34°
NE
44°
NE
50°
NE
50°
NE
48°
NE
51°
NE
57°
ENE
59°
ENE
58°
ENE
59°
ENE
59°
ENE
57°
ENE
57°
ENE
58°
ENE
56°
NE
56°
NE
56°
NE
56°
NE
58°
ENE
56°
NE
59°
ENE
59°
ENE
54°
NE
46°
NE
41°
NE
43°
NE
42°
NE
39°
NE
38°
NE
45°
NE
51°
NE
58°
ENE
55°
NE
349°
N
297°
WNW
285°
WNW
289°
WNW
299°
WNW
304°
NW
307°
NW
312°
NW
330°
NNW
347°
NNW

N
17°
NNE
19°
NNE

Daily Forecast

Date High Low Precip. Humidity
Today
Sep 30

Clear
81 °F
68 °F
0%
65%
Saturday
Oct 1

Clouds
81 °F
76 °F
34%
64%
Sunday
Oct 2

Rain
81 °F
77 °F
41%
63%
Monday
Oct 3

Rain
81 °F
74 °F
49%
52%
Tuesday
Oct 4

Rain
80 °F
74 °F
36%
55%
Wednesday
Oct 5

Rain
78 °F
73 °F
85%
68%
Thursday
Oct 6

Clouds
79 °F
76 °F
11%
65%
Friday
Oct 7

Rain
81 °F
76 °F
40%
67%
Saturday
Oct 8

Rain
82 °F
79 °F
81%
73%
Sunday
Oct 9

Rain
80 °F
77 °F
96%
78%
Monday
Oct 10

Rain
82 °F
77 °F
100%
70%
Tuesday
Oct 11

Rain
83 °F
78 °F
70%
70%
Wednesday
Oct 12

Rain
82 °F
77 °F
97%
69%
Thursday
Oct 13

Rain
81 °F
78 °F
100%
72%
Friday
Oct 14

Rain
80 °F
77 °F
40%
61%
Saturday
Oct 15

Rain
80 °F
77 °F
45%
58%

Temperature 8-14 Day Outlook



Precipitation 8-14 Day Outlook




Quick Links
Jupiter, Florida News
Jupiter, Florida Photos
Jupiter, Florida Videos




About Us
Contact Us
Site Map
Search Site
Advertise With Us
   
Jupiter.CoastalTown.com
THE JUPITER, FLORIDA WEBSITE

Copyright 2022, Coastal Town
Privacy    |    Legal